Time,TemperatureF,DewpointF,PressureIn,WindDirection,WindDirectionDegrees,WindSpeedMPH,WindSpeedGustMPH,Humidity,HourlyPrecipIn,Conditions,Clouds,dailyrainin,SoftwareType,DateUTC
2013-10-16 00:00:00,61.0,58.0,30.09,ENE,71,11.0,18.0,89,0.00,,,-99.99,,2013-10-16 04:00:00,
2013-10-16 00:44:00,61.0,58.0,30.09,ENE,71,11.0,18.0,89,0.00,,,-99.99,,2013-10-16 04:44:00,
2013-10-16 00:54:00,61.0,58.0,30.09,ENE,71,11.0,18.0,89,0.00,,,-99.99,,2013-10-16 04:54:00,
2013-10-16 01:00:00,62.0,58.0,30.08,ENE,74,5.0,-999.0,90,-99.99,,,-99.99,,2013-10-16 05:00:00,
2013-10-16 01:43:00,62.0,58.0,30.08,ENE,74,5.0,-999.0,90,-99.99,,,-99.99,,2013-10-16 05:43:00,
2013-10-16 01:53:00,62.0,58.0,30.08,ENE,74,5.0,-999.0,90,-99.99,,,-99.99,,2013-10-16 05:53:00,
2013-10-16 02:00:00,62.0,59.0,30.07,ENE,59,9.0,12.0,90,0.00,,,-99.99,,2013-10-16 06:00:00,
2013-10-16 02:43:00,62.0,59.0,30.07,ENE,59,9.0,12.0,90,0.00,,,-99.99,,2013-10-16 06:43:00,
2013-10-16 02:52:00,62.0,59.0,30.07,ENE,59,9.0,12.0,90,0.00,,,-99.99,,2013-10-16 06:52:00,
2013-10-16 03:00:00,62.0,59.0,30.07,East,86,8.0,13.0,89,0.00,,,-99.99,,2013-10-16 07:00:00,
2013-10-16 03:42:00,62.0,59.0,30.07,East,86,8.0,13.0,89,0.00,,,-99.99,,2013-10-16 07:42:00,
2013-10-16 03:53:00,62.0,59.0,30.07,East,86,8.0,13.0,89,0.00,,,-99.99,,2013-10-16 07:53:00,
2013-10-16 05:00:00,62.0,58.0,30.05,NNE,22,5.0,16.0,89,0.00,,,-99.99,,2013-10-16 09:00:00,
2013-10-16 05:43:00,62.0,58.0,30.05,NNE,22,5.0,16.0,89,0.00,,,-99.99,,2013-10-16 09:43:00,
2013-10-16 05:54:00,62.0,58.0,30.05,NNE,22,5.0,16.0,89,0.00,,,-99.99,,2013-10-16 09:54:00,
2013-10-16 06:00:00,61.0,59.0,30.06,NE,52,9.0,-999.0,93,-99.99,,,-99.99,,2013-10-16 10:00:00,
2013-10-16 06:42:00,61.0,59.0,30.06,NE,52,9.0,-999.0,93,-99.99,,,-99.99,,2013-10-16 10:42:00,
2013-10-16 06:53:00,61.0,59.0,30.06,NE,52,9.0,-999.0,93,-99.99,,,-99.99,,2013-10-16 10:53:00,
2013-10-16 07:00:00,61.0,59.0,30.06,NE,40,9.0,12.0,94,0.00,,,-99.99,,2013-10-16 11:00:00,
2013-10-16 07:42:00,61.0,59.0,30.06,NE,40,9.0,12.0,94,0.00,,,-99.99,,2013-10-16 11:42:00,
2013-10-16 07:52:00,61.0,59.0,30.06,NE,40,9.0,12.0,94,0.00,,,-99.99,,2013-10-16 11:52:00,
2013-10-16 08:00:00,61.0,58.0,30.05,NNE,25,9.0,14.0,93,0.00,,,-99.99,,2013-10-16 12:00:00,
2013-10-16 08:43:00,61.0,58.0,30.05,NNE,25,9.0,14.0,93,0.00,,,-99.99,,2013-10-16 12:43:00,
2013-10-16 08:52:00,61.0,58.0,30.05,NNE,25,9.0,14.0,93,0.00,,,-99.99,,2013-10-16 12:52:00,
2013-10-16 09:00:00,61.0,58.0,30.04,NE,35,7.0,13.0,91,0.00,,,-99.99,,2013-10-16 13:00:00,
2013-10-16 09:42:00,61.0,58.0,30.04,NE,35,7.0,13.0,91,0.00,,,-99.99,,2013-10-16 13:42:00,
2013-10-16 09:52:00,61.0,58.0,30.04,NE,35,7.0,13.0,91,0.00,,,-99.99,,2013-10-16 13:52:00,
2013-10-16 10:00:00,61.0,58.0,30.06,NNE,22,9.0,12.0,90,0.00,,,-99.99,,2013-10-16 14:00:00,
2013-10-16 10:42:00,61.0,58.0,30.06,NNE,22,9.0,12.0,90,0.00,,,-99.99,,2013-10-16 14:42:00,
2013-10-16 10:52:00,61.0,58.0,30.06,NNE,22,9.0,12.0,90,0.00,,,-99.99,,2013-10-16 14:52:00,
2013-10-16 11:00:00,63.0,58.0,30.03,NE,46,7.0,13.0,85,0.00,,,-99.99,,2013-10-16 15:00:00,
2013-10-16 11:43:00,63.0,58.0,30.03,NE,46,7.0,13.0,85,0.00,,,-99.99,,2013-10-16 15:43:00,
2013-10-16 11:53:00,63.0,58.0,30.03,NE,46,7.0,13.0,85,0.00,,,-99.99,,2013-10-16 15:53:00,
2013-10-16 12:00:00,63.0,57.0,30.03,ENE,60,6.0,12.0,81,0.00,,,-99.99,,2013-10-16 16:00:00,
2013-10-16 12:42:00,63.0,57.0,30.03,ENE,60,6.0,12.0,81,0.00,,,-99.99,,2013-10-16 16:42:00,
2013-10-16 12:53:00,63.0,57.0,30.03,ENE,60,6.0,12.0,81,0.00,,,-99.99,,2013-10-16 16:53:00,
2013-10-16 13:00:00,64.0,57.0,30.00,NE,42,5.0,11.0,78,0.00,,,-99.99,,2013-10-16 17:00:00,
2013-10-16 13:43:00,64.0,57.0,30.00,NE,42,5.0,11.0,78,0.00,,,-99.99,,2013-10-16 17:43:00,
2013-10-16 13:52:00,64.0,57.0,30.00,NE,42,5.0,11.0,78,0.00,,,-99.99,,2013-10-16 17:52:00,
2013-10-16 14:00:00,64.0,58.0,29.97,East,82,5.0,9.0,82,0.00,,,-99.99,,2013-10-16 18:00:00,
2013-10-16 14:42:00,64.0,58.0,29.97,East,82,5.0,9.0,82,0.00,,,-99.99,,2013-10-16 18:42:00,
2013-10-16 14:52:00,64.0,58.0,29.97,East,82,5.0,9.0,82,0.00,,,-99.99,,2013-10-16 18:52:00,
2013-10-16 15:00:00,63.0,59.0,29.97,NE,42,7.0,-999.0,87,-99.99,,,-99.99,,2013-10-16 19:00:00,
2013-10-16 15:42:00,63.0,59.0,29.97,NE,42,7.0,-999.0,87,-99.99,,,-99.99,,2013-10-16 19:42:00,
2013-10-16 15:52:00,63.0,59.0,29.97,NE,42,7.0,-999.0,87,-99.99,,,-99.99,,2013-10-16 19:52:00,
2013-10-16 16:00:00,62.0,59.0,29.97,NE,35,4.0,8.0,88,0.00,,,-99.99,,2013-10-16 20:00:00,
2013-10-16 16:43:00,62.0,59.0,29.97,NE,35,4.0,8.0,88,0.00,,,-99.99,,2013-10-16 20:43:00,
2013-10-16 16:52:00,62.0,59.0,29.97,NE,35,4.0,8.0,88,0.00,,,-99.99,,2013-10-16 20:52:00,
2013-10-16 17:00:00,62.0,59.0,29.96,NE,36,3.0,4.0,90,0.00,,,-99.99,,2013-10-16 21:00:00,
2013-10-16 17:44:00,62.0,59.0,29.96,NE,36,3.0,4.0,90,0.00,,,-99.99,,2013-10-16 21:44:00,
2013-10-16 17:54:00,62.0,59.0,29.96,NE,36,3.0,4.0,90,0.00,,,-99.99,,2013-10-16 21:54:00,
2013-10-16 18:00:00,61.0,59.0,29.96,ESE,104,2.0,5.0,92,0.00,,,-99.99,,2013-10-16 22:00:00,
2013-10-16 18:42:00,61.0,59.0,29.96,ESE,104,2.0,5.0,92,0.00,,,-99.99,,2013-10-16 22:42:00,
2013-10-16 18:54:00,61.0,59.0,29.96,ESE,104,2.0,5.0,92,0.00,,,-99.99,,2013-10-16 22:54:00,
2013-10-16 19:00:00,62.0,60.0,29.94,East,82,6.0,9.0,94,0.00,,,-99.99,,2013-10-16 23:00:00,
2013-10-16 19:42:00,62.0,60.0,29.94,East,82,6.0,9.0,94,0.00,,,-99.99,,2013-10-16 23:42:00,
2013-10-16 19:53:00,62.0,60.0,29.94,East,82,6.0,9.0,94,0.00,,,-99.99,,2013-10-16 23:53:00,
2013-10-16 20:00:00,61.0,59.0,29.93,ESE,114,5.0,7.0,94,0.00,,,-99.99,,2013-10-17 00:00:00,
2013-10-16 20:42:00,61.0,59.0,29.93,ESE,114,5.0,7.0,94,0.00,,,-99.99,,2013-10-17 00:42:00,
2013-10-16 20:52:00,61.0,59.0,29.93,ESE,114,5.0,7.0,94,0.00,,,-99.99,,2013-10-17 00:52:00,
2013-10-16 21:00:00,61.0,60.0,29.95,SE,142,4.0,8.0,94,0.00,,,-99.99,,2013-10-17 01:00:00,
2013-10-16 21:43:00,61.0,60.0,29.95,SE,142,4.0,8.0,94,0.00,,,-99.99,,2013-10-17 01:43:00,
2013-10-16 21:52:00,61.0,60.0,29.95,SE,142,4.0,8.0,94,0.00,,,-99.99,,2013-10-17 01:52:00,
2013-10-16 22:00:00,62.0,60.0,29.95,South,178,4.0,6.0,94,0.00,,,-99.99,,2013-10-17 02:00:00,
2013-10-16 22:53:00,62.0,60.0,29.95,South,178,4.0,6.0,94,0.00,,,-99.99,,2013-10-17 02:53:00,
2013-10-16 23:00:00,62.0,60.0,29.94,SSW,199,5.0,7.0,94,0.00,,,-99.99,,2013-10-17 03:00:00,
2013-10-16 23:45:00,62.0,60.0,29.94,SSW,199,5.0,7.0,94,0.00,,,-99.99,,2013-10-17 03:45:00,
2013-10-16 23:54:00,62.0,60.0,29.94,SSW,199,5.0,7.0,94,0.00,,,-99.99,,2013-10-17 03:54:00,